Location: Hradec Kralove
(50.2170°N, 15.8330°E)
Time: 01:09:39
(UTC+02:00)

AO-73 - Pass Details

Date: 18 September 2024
Orbit: 549 x 616 km, 97.7° (Epoch: 04 October)

Event Time Altitude Azimuth Distance (km) Brightness Sun altitude
Rises 04:46:16 0° 8° (N) 2,816 ? -17.9°
Reaches altitude 10° 04:48:31 10° 2° (N) 1,900 ? -17.6°
Maximum altitude 04:52:25 44° 291° (WNW) 794 ? -17.0°
Enters shadow 04:53:31 35° 249° (WSW) 926 ? -16.9°
